H1 CPF 2 NER 2023 6 28 9 179 01 glonass143 H2 2007501 9143 46805 2023 6 28 0 0 0 2023 7 1 23 45 0 900 1 1 0 0 0 1 H9 10 0 60123 0.00000 0 15363903.896 -19806704.506 -4762706.647 10 0 60123 900.00000 0 15511961.197 -20199288.344 -1582902.547 10 0 60123 1800.00000 0 15393689.511 -20288231.404 1627620.377 10 0 60123 2700.00000 0 15053045.836 -20040149.605 4806564.077 10 0 60123 3600.00000 0 14540989.037 -19432989.571 7892267.580 10 0 60123 4500.00000 0 13913144.520 -18457123.547 10824899.759 10 0 60123 5400.00000 0 13227288.820 -17115938.073 13547614.699 10 0 60123 6300.00000 0 12540760.375 -15425891.508 16007647.612 10 0 60123 7200.00000 0 11907905.550 -13416037.660 18157330.504 10 0 60123 8100.00000 0 11377667.169 -11127034.867 19955008.678 10 0 60123 9000.00000 0 10991416.594 -8609681.088 21365841.100 10 0 60123 9900.00000 0 10781120.035 -5923035.050 22362469.959 10 0 60123 10800.00000 0 10767915.750 -3132200.380 22925547.224 10 0 60123 11700.00000 0 10961161.664 -305863.363 23044108.599 10 0 60123 12600.00000 0 11357993.434 2486314.871 22715787.931 10 0 60123 13500.00000 0 11943411.876 5176345.063 21946867.952 10 0 60123 14400.00000 0 12690896.741 7700487.039 20752165.977 10 0 60123 15300.00000 0 13563521.980 10001651.634 19154756.146 10 0 60123 16200.00000 0 14515526.756 12031528.609 17185532.635 10 0 60123 17100.00000 0 15494277.251 13752352.780 14882621.204 10 0 60123 18000.00000 0 16442537.748 15138235.281 12290649.371 10 0 60123 18900.00000 0 17300956.119 16176004.695 9459888.337 10 0 60123 19800.00000 0 18010659.367 16865523.046 6445282.450 10 0 60123 20700.00000 0 18515849.738 17219463.458 3305384.555 10 0 60123 21600.00000 0 18766291.348 17262559.004 101217.754 10 0 60123 22500.00000 0 18719581.497 17030354.530 -3104914.169 10 0 60123 23400.00000 0 18343109.542 16567514.472 -6250643.932 10 0 60123 24300.00000 0 17615619.190 15925758.627 -9274761.131 10 0 60123 25200.00000 0 16528306.796 15161513.799 -12118411.179 10 0 60123 26100.00000 0 15085407.826 14333381.401 -14726248.458 10 0 60123 27000.00000 0 13304245.449 13499528.981 -17047520.422 10 0 60123 27900.00000 0 11214737.994 12715116.770 -19037060.855 10 0 60123 28800.00000 0 8858385.040 12029868.767 -20656172.452 10 0 60123 29700.00000 0 6286773.886 11485891.508 -21873381.387 10 0 60123 30600.00000 0 3559668.372 11115832.947 -22665049.198 10 0 60123 31500.00000 0 742759.517 10941459.222 -23015830.331 10 0 60123 32400.00000 0 -2094828.524 10972709.225 -22918966.832 10 0 60123 33300.00000 0 -4883173.572 11207266.490 -22376414.887 10 0 60123 34200.00000 0 -7554222.263 11630666.032 -21398801.214 10 0 60123 35100.00000 0 -10044378.137 12216931.112 -20005210.540 10 0 60123 36000.00000 0 -12296903.950 12929712.570 -18222808.655 10 0 60123 36900.00000 0 -14264039.009 13723882.192 -16086308.595 10 0 60123 37800.00000 0 -15908744.426 14547512.487 -13637290.583 10 0 60123 38700.00000 0 -17206004.714 15344158.980 -10923389.075 10 0 60123 39600.00000 0 -18143632.798 16055348.406 -7997362.937 10 0 60123 40500.00000 0 -18722546.360 16623167.572 -4916067.046 10 0 60123 41400.00000 0 -18956505.532 16992843.407 -1739345.512 10 0 60123 42300.00000 0 -18871324.586 17115205.197 1471131.641 10 0 60123 43200.00000 0 -18503592.261 16948925.013 4653065.508 10 0 60123 44100.00000 0 -17898955.861 16462441.803 7744735.621 10 0 60123 45000.00000 0 -17110042.408 15635487.969 10686194.001 10 0 60123 45900.00000 0 -16194105.136 14460154.067 13420422.905 10 0 60123 46800.00000 0 -15210494.736 12941446.629 15894434.127 10 0 60123 47700.00000 0 -14218061.888 11097315.281 18060289.025 10 0 60123 48600.00000 0 -13272600.013 8958147.433 19876020.218 10 0 60123 49500.00000 0 -12424435.259 6565750.762 21306437.927 10 0 60123 50400.00000 0 -11716264.300 3971864.873 22323806.148 10 0 60123 51300.00000 0 -11181330.042 1236262.782 22908376.383 10 0 60123 52200.00000 0 -10842011.177 -1575480.347 23048769.166 10 0 60123 53100.00000 0 -10708884.347 -4394460.095 22742196.341 10 0 60123 54000.00000 0 -10780298.122 -7151056.288 21994519.807 10 0 60123 54900.00000 0 -11042476.786 -9777580.191 20820145.266 10 0 60123 55800.00000 0 -11470150.055 -12210846.834 19241752.352 10 0 60123 56700.00000 0 -12027682.893 -14394566.737 17289865.477 10 0 60123 57600.00000 0 -12670658.750 -16281458.410 15002272.603 10 0 60123 58500.00000 0 -13347850.375 -17834994.153 12423302.067 10 0 60123 59400.00000 0 -14003495.827 -19030706.587 9602970.477 10 0 60123 60300.00000 0 -14579784.127 -19857001.387 6596017.304 10 0 60123 61200.00000 0 -15019445.669 -20315442.086 3460844.420 10 0 60123 62100.00000 0 -15268337.611 -20420494.956 258380.965 10 0 60123 63000.00000 0 -15277914.255 -20198744.668 -2949104.216 10 0 60123 63900.00000 0 -15007476.844 -19687613.917 -6099218.977 10 0 60123 64800.00000 0 -14426106.337 -18933641.288 -9130668.652 10 0 60123 65700.00000 0 -13514195.917 -17990390.562 -11984456.605 10 0 60123 66600.00000 0 -12264516.983 -16916080.369 -14605040.165 10 0 60123 67500.00000 0 -10682772.124 -15771035.067 -16941418.614 10 0 60123 68400.00000 0 -8787610.360 -14615065.199 -18948131.343 10 0 60123 69300.00000 0 -6610102.859 -13504888.792 -20586146.254 10 0 60123 70200.00000 0 -4192700.082 -12491702.791 -21823620.934 10 0 60123 71100.00000 0 -1587713.280 -11619007.300 -22636521.813 10 0 60123 72000.00000 0 1144616.767 -10920774.306 -23009089.492 10 0 60123 72900.00000 0 3938383.629 -10420037.796 -22934141.573 10 0 60123 73800.00000 0 6724517.724 -10127964.088 -22413207.537 10 0 60123 74700.00000 0 9433423.592 -10043440.849 -21456493.487 10 0 60123 75600.00000 0 11997642.531 -10153201.255 -20082677.855 10 0 60123 76500.00000 0 14354430.340 -10432477.192 -18318542.348 10 0 60123 77400.00000 0 16448143.404 -10846153.062 -16198445.593 10 0 60123 78300.00000 0 18232334.553 -11350370.725 -13763649.907 10 0 60123 79200.00000 0 19671472.265 -11894517.118 -11061514.471 10 0 60123 80100.00000 0 20742212.528 -12423509.994 -8144570.772 10 0 60123 81000.00000 0 21434171.532 -12880284.754 -5069498.543 10 0 60123 81900.00000 0 21750168.223 -13208376.869 -1896022.296 10 0 60123 82800.00000 0 21705927.989 -13354490.520 1314249.754 10 0 60123 83700.00000 0 21329261.352 -13270944.700 4499021.621 10 0 60123 84600.00000 0 20658753.458 -12917893.367 7596516.886 10 0 60123 85500.00000 0 19742020.542 -12265225.806 10546673.929 10 0 60124 0.00000 0 18633607.615 -11294067.077 13292305.709 10 0 60124 900.00000 0 17392615.591 -9997814.546 15780203.376 10 0 60124 1800.00000 0 16080159.269 -8382667.910 17962159.120 10 0 60124 2700.00000 0 14756760.750 -6467628.180 19795894.086 10 0 60124 3600.00000 0 13479788.605 -4283966.005 21245870.436 10 0 60124 4500.00000 0 12301048.988 -1874179.994 22283974.182 10 0 60124 5400.00000 0 11264628.838 709512.782 22890056.098 10 0 60124 6300.00000 0 10405080.733 3407092.858 23052320.861 10 0 60124 7200.00000 0 9746024.627 6152982.981 22767557.229 10 0 60124 8100.00000 0 9299224.488 8878529.713 22041204.843 10 0 60124 9000.00000 0 9064178.198 11514620.663 20887256.043 10 0 60124 9900.00000 0 9028237.881 13994330.071 19327993.951 10 0 60124 10800.00000 0 9167255.794 16255484.050 17393571.004 10 0 60124 11700.00000 0 9446729.076 18243039.717 15121434.969 10 0 60124 12600.00000 0 9823395.681 19911179.640 12555612.493 10 0 60124 13500.00000 0 10247214.730 21225034.510 9745862.977 10 0 60124 14400.00000 0 10663648.115 22161962.006 6746718.337 10 0 60124 15300.00000 0 11016147.032 22712328.118 3616426.763 10 0 60124 16200.00000 0 11248738.142 22879757.864 415820.762 10 0 60124 17100.00000 0 11308599.307 22680844.638 -2792868.379 10 0 60124 18000.00000 0 11148514.983 22144330.242 -5947226.105 10 0 60124 18900.00000 0 10729106.085 21309790.226 -8985875.739 10 0 60124 19800.00000 0 10020738.545 20225880.145 -11849680.595 10 0 60124 20700.00000 0 9005028.273 18948217.161 -14482902.666 10 0 60124 21600.00000 0 7675877.405 17536986.889 -16834294.494 10 0 60124 22500.00000 0 6039996.581 16054377.014 -18858102.251 10 0 60124 23400.00000 0 4116889.923 14561946.479 -20514960.004 10 0 60124 24300.00000 0 1938302.131 13118041.524 -21772657.515 10 0 60124 25200.00000 0 -452850.109 11775367.608 -22606766.710 10 0 60124 26100.00000 0 -3004018.422 10578819.384 -23001114.771 10 0 60124 27000.00000 0 -5654971.002 9563659.647 -22948095.083 10 0 60124 27900.00000 0 -8340068.020 8754123.224 -22448810.396 10 0 60124 28800.00000 0 -10990769.682 8162503.635 -21513045.875 10 0 60124 29700.00000 0 -13538272.840 7788759.859 -20159072.978 10 0 60124 30600.00000 0 -15916166.745 7620658.549 -18413288.303 10 0 60124 31500.00000 0 -18062997.735 7634444.489 -16309694.692 10 0 60124 32400.00000 0 -19924636.565 7796009.821 -13889234.909 10 0 60124 33300.00000 0 -21456350.315 8062511.613 -11198990.972 10 0 60124 34200.00000 0 -22624493.198 8384368.502 -8291264.954 10 0 60124 35100.00000 0 -23407746.569 8707551.226 -5222559.294 10 0 60124 36000.00000 0 -23797857.353 8976069.569 -2052476.696 10 0 60124 36900.00000 0 -23799845.136 9134550.048 1157438.724 10 0 60124 37800.00000 0 -23431670.440 9130794.996 4344896.229 10 0 60124 38700.00000 0 -22723379.301 8918214.596 7448065.858 10 0 60124 39600.00000 0 -21715761.079 8458028.968 10406774.803 10 0 60124 40500.00000 0 -20458576.714 7721147.199 13163669.697 10 0 60124 41400.00000 0 -19008432.328 6689643.925 15665322.538 10 0 60124 42300.00000 0 -17426387.671 5357770.987 17863259.284 10 0 60124 43200.00000 0 -15775399.541 3732461.176 19714891.886 10 0 60124 44100.00000 0 -14117706.862 1833302.171 21184336.525 10 0 60124 45000.00000 0 -12512266.213 -308019.234 22243103.019 10 0 60124 45900.00000 0 -11012344.152 -2648780.708 22870642.887 10 0 60124 46800.00000 0 -9663366.010 -5136752.942 23054746.053 10 0 60124 47700.00000 0 -8501110.110 -7712131.240 22791778.914 10 0 60124 48600.00000 0 -7550321.995 -10309791.534 22086759.169 10 0 60124 49500.00000 0 -6823805.938 -12861778.818 20953265.710 10 0 60124 50400.00000 0 -6322031.309 -15299926.079 19413184.651 10 0 60124 51300.00000 0 -6033270.082 -17558496.176 17496295.535 10 0 60124 52200.00000 0 -5934259.733 -19576737.723 15239704.634 10 0 60124 53100.00000 0 -5991363.840 -21301249.090 12687135.216 10 0 60124 54000.00000 0 -6162181.769 -22688052.150 9888087.451 10 0 60124 54900.00000 0 -6397539.763 -23704289.030 6896883.395 10 0 60124 55800.00000 0 -6643779.404 -24329470.505 3771615.003 10 0 60124 56700.00000 0 -6845246.487 -24556223.199 573015.394 10 0 60124 57600.00000 0 -6946874.493 -24390503.713 -2636724.601 10 0 60124 58500.00000 0 -6896752.429 -23851270.213 -5795171.065 10 0 60124 59400.00000 0 -6648567.190 -22969625.045 -8840868.463 10 0 60124 60300.00000 0 -6163815.661 -21787464.368 -11714543.267 10 0 60124 61200.00000 0 -5413691.443 -20355691.894 -14360265.346 10 0 60124 62100.00000 0 -4380564.883 -18732072.283 -16726543.638 10 0 60124 63000.00000 0 -3058992.363 -16978815.064 -18767334.051 10 0 60124 63900.00000 0 -1456210.864 -15159991.280 -20442939.473 10 0 60124 64800.00000 0 407904.291 -13338891.917 -21720784.126 10 0 60124 65700.00000 0 2501417.854 -11575439.412 -22576047.229 10 0 60124 66600.00000 0 4781425.879 -9923760.951 -22992143.838 10 0 60124 67500.00000 0 7195614.808 -8430025.153 -22961043.876 10 0 60124 68400.00000 0 9684223.842 -7130632.280 -22483423.592 10 0 60124 69300.00000 0 12182329.083 -6050833.021 -21568646.942 10 0 60124 70200.00000 0 14622354.521 -5203832.646 -20234577.665 10 0 60124 71100.00000 0 16936705.520 -4590416.758 -18507226.040 10 0 60124 72000.00000 0 19060415.233 -4199112.902 -16420237.463 10 0 60124 72900.00000 0 20933693.972 -4006879.717 -14014232.998 10 0 60124 73800.00000 0 22504275.546 -3980293.096 -11336014.907 10 0 60124 74700.00000 0 23729463.106 -4077178.021 -8437652.799 10 0 60124 75600.00000 0 24577789.604 -4248615.948 -5375468.395 10 0 60124 76500.00000 0 25030224.209 -4441241.963 -2208938.857 10 0 60124 77400.00000 0 25080875.000 -4599733.771 1000459.673 10 0 60124 78300.00000 0 24737159.456 -4669386.703 4190445.625 10 0 60124 79200.00000 0 24019436.561 -4598665.412 7299139.264 10 0 60124 80100.00000 0 22960116.842 -4341624.155 10266260.120 10 0 60124 81000.00000 0 21602288.422 -3860093.248 13034291.407 10 0 60124 81900.00000 0 19997917.229 -3125539.278 15549589.176 10 0 60124 82800.00000 0 18205697.015 -2120520.487 17763415.131 10 0 60124 83700.00000 0 16288639.163 -839675.743 19632873.784 10 0 60124 84600.00000 0 14311502.673 709795.007 21121736.609 10 0 60124 85500.00000 0 12338171.089 2508179.775 22201138.054 10 0 60125 0.00000 0 10429085.146 4523831.936 22850130.711 10 0 60125 900.00000 0 8638836.166 6714254.402 23056089.818 10 0 60125 1800.00000 0 7014022.052 9027644.218 22814958.833 10 0 60125 2700.00000 0 5591450.800 11404838.543 22131332.608 10 0 60125 3600.00000 0 4396768.135 13781580.139 21018375.270 10 0 60125 4500.00000 0 3443564.782 16091010.727 19497574.235 10 0 60125 5400.00000 0 2733000.348 18266289.689 17598334.132 10 0 60125 6300.00000 0 2253959.234 20243230.146 15357417.428 10 0 60125 7200.00000 0 1983731.916 21962843.171 12818241.469 10 0 60125 8100.00000 0 1889192.946 23373684.254 10030044.475 10 0 60125 9000.00000 0 1928426.040 24433903.821 7046935.773 10 0 60125 9900.00000 0 2052727.685 25112915.519 3926848.131 10 0 60125 10800.00000 0 2208904.327 25392611.685 730412.295 10 0 60125 11700.00000 0 2341765.544 25268074.206 -2480224.316 10 0 60125 12600.00000 0 2396706.892 24747750.156 -5642611.269 10 0 60125 13500.00000 0 2322272.037 23853084.199 -8695216.825 10 0 60125 14400.00000 0 2072584.410 22617622.813 -11578633.027 10 0 60125 15300.00000 0 1609544.027 21085627.843 -14236739.744 10 0 60125 16200.00000 0 904695.037 19310257.780 -16617804.116 10 0 60125 17100.00000 0 -59316.416 17351393.470 -18675493.298 10 0 60125 18000.00000 0 -1287756.970 15273199.995 -20369780.229 10 0 60125 18900.00000 0 -2773336.264 13141527.456 -21667724.560 10 0 60125 19800.00000 0 -4496273.517 11021259.940 -22544113.543 10 0 60125 20700.00000 0 -6424898.569 8973723.918 -22981950.593 10 0 60125 21600.00000 0 -8516762.995 7054264.396 -22972782.386 10 0 60125 22500.00000 0 -10720215.326 5310089.827 -22516858.575 10 0 60125 23400.00000 0 -12976374.975 3778475.165 -21623121.461 10 0 60125 24300.00000 0 -15221422.696 2485397.163 -20309026.236 10 0 60125 25200.00000 0 -17389112.212 1444657.684 -18600195.646 10 0 60125 26100.00000 0 -19413398.312 657530.190 -16529916.068 10 0 60125 27000.00000 0 -21231071.856 112942.538 -14138485.006 10 0 60125 27900.00000 0 -22784291.871 -211813.324 -11472422.864 10 0 60125 28800.00000 0 -24022909.112 -349876.315 -8583564.534 10 0 60125 29700.00000 0 -24906484.278 -343168.135 -5528048.666 10 0 60125 30600.00000 0 -25405916.872 -240373.055 -2365224.477 10 0 60125 31500.00000 0 -25504617.006 -94632.007 843502.308 10 0 60125 32400.00000 0 -25199171.732 38950.693 4035861.752 10 0 60125 33300.00000 0 -24499478.619 105881.943 7149926.845 10 0 60125 34200.00000 0 -23428341.697 54826.553 10125311.946 10 0 60125 35100.00000 0 -22020547.273 -159981.832 12904339.334 10 0 60125 36000.00000 0 -20321458.780 -576567.455 15433151.530 10 0 60125 36900.00000 0 -18385189.693 -1223368.624 17662748.274 10 0 60125 37800.00000 0 -16272430.841 -2117801.108 19549928.737 10 0 60125 38700.00000 0 -14048022.486 -3265289.537 21058121.531 10 0 60125 39600.00000 0 -11778371.858 -4658808.019 22158087.277 10 0 60125 40500.00000 0 -9528822.856 -6278950.051 22828480.933 10 0 60125 41400.00000 0 -7361086.390 -8094526.010 23056263.669 10 0 60125 42300.00000 0 -5330837.155 -10063664.616 22836956.685 10 0 60125 43200.00000 0 -3485575.707 -12135374.042 22174732.171 10 0 60125 44100.00000 0 -1862843.705 -14251499.259 21082339.352 10 0 60125 45000.00000 0 -488865.787 -16348995.657 19580866.491 10 0 60125 45900.00000 0 622326.044 -18362425.648 17699342.527 10 0 60125 46800.00000 0 1469249.491 -20226575.333 15474185.025 10 0 60125 47700.00000 0 2062795.890 -21879082.771 12948503.982 10 0 60125 48600.00000 0 2425528.611 -23262968.465 10171273.923 10 0 60125 49500.00000 0 2590485.596 -24328962.115 7196389.409 10 0 60125 50400.00000 0 2599536.623 -25037527.725 4081621.731 10 0 60125 51300.00000 0 2501364.918 -25360501.383 887496.744 10 0 60125 52200.00000 0 2349158.850 -25282271.984 -2323884.240 10 0 60125 53100.00000 0 2198112.052 -24800454.282 -5490057.114 10 0 60125 54000.00000 0 2102838.721 -23926024.991 -8549416.897 10 0 60125 54900.00000 0 2114814.678 -22682915.447 -11442424.247 10 0 60125 55800.00000 0 2279953.862 -21107077.394 -14112772.094 10 0 60125 56700.00000 0 2636424.166 -19245060.887 -16508488.813 10 0 60125 57600.00000 0 3212796.434 -17152163.983 -18582955.702 10 0 60125 58500.00000 0 4026606.082 -14890232.044 -20295818.423 10 0 60125 59400.00000 0 5083389.275 -12525199.136 -21613774.406 10 0 60125 60300.00000 0 6376235.318 -10124474.713 -22511220.883 10 0 60125 61200.00000 0 7885874.952 -7754285.063 -22970751.127 10 0 60125 62100.00000 0 9581301.578 -5477080.563 -22983489.590 10 0 60125 63000.00000 0 11420899.904 -3349116.709 -22549259.870 10 0 60125 63900.00000 0 13354035.096 -1418309.286 -21676582.686 10 0 60125 64800.00000 0 15323036.208 277547.690 -20382504.309 10 0 60125 65700.00000 0 17265491.079 1712128.104 -18692259.134 10 0 60125 66600.00000 0 19116756.788 2871429.150 -16638773.251 10 0 60125 67500.00000 0 20812580.731 3754101.951 -14262018.879 10 0 60125 68400.00000 0 22291722.711 4371245.352 -11608232.382 10 0 60125 69300.00000 0 23498468.338 4745673.388 -8729011.314 10 0 60125 70200.00000 0 24384928.629 4910689.049 -5680308.227 10 0 60125 71100.00000 0 24913029.639 4908417.606 -2521341.056 10 0 60125 72000.00000 0 25056109.024 4787771.237 686558.444 10 0 60125 72900.00000 0 24800052.939 4602132.010 3881135.594 10 0 60125 73800.00000 0 24143926.036 4406852.007 7000419.685 10 0 60125 74700.00000 0 23100068.568 4256676.787 9983923.317 10 0 60125 75600.00000 0 21693656.934 4203201.384 12773810.979 10 0 60125 76500.00000 0 19961746.308 4292466.420 15316014.490 10 0 60125 77400.00000 0 17951835.519 4562795.738 17561274.094 10 0 60125 78300.00000 0 15720014.002 5042966.731 19466085.725 10 0 60125 79200.00000 0 13328767.726 5750790.404 20993536.869 10 0 60125 80100.00000 0 10844534.901 6692161.129 22114015.685 10 0 60125 81000.00000 0 8335112.294 7860616.453 22805780.447 10 0 60125 81900.00000 0 5867018.906 9237426.215 23055378.979 10 0 60125 82800.00000 0 3502925.386 10792208.340 22857910.324 10 0 60125 83700.00000 0 1299254.738 12484046.893 22217123.752 10 0 60125 84600.00000 0 -695947.185 14263067.240 21145352.876 10 0 60125 85500.00000 0 -2444783.891 16072404.052 19663285.639 10 0 60126 0.00000 0 -3920850.158 17850481.332 17799573.884 10 0 60126 900.00000 0 -5110089.144 19533511.379 15590287.957 10 0 60126 1800.00000 0 -6011127.475 21058106.810 13078228.357 10 0 60126 2700.00000 0 -6635077.251 22363900.003 10312103.349 10 0 60126 3600.00000 0 -7004811.515 23396057.916 7345589.963 10 0 60126 4500.00000 0 -7153744.715 24107587.389 4236295.096 10 0 60126 5400.00000 0 -7124169.691 24461333.218 1044636.711 10 0 60126 6300.00000 0 -6965221.831 24431584.029 -2167333.028 10 0 60126 7200.00000 0 -6730557.017 24005217.182 -5337139.355 10 0 60126 8100.00000 0 -6475842.453 23182333.368 -8403106.960 10 0 60126 9000.00000 0 -6256167.586 21976353.044 -11305567.856 10 0 60126 9900.00000 0 -6123485.888 20413569.759 -13988030.557 10 0 60126 10800.00000 0 -6124197.062 18532178.449 -16398286.915 10 0 60126 11700.00000 0 -6296973.166 16380819.078 -18489434.322 10 0 60126 12600.00000 0 -6670921.775 14016696.571 -20220792.817 10 0 60126 13500.00000 0 -7264164.801 11503355.777 -21558698.971 10 0 60126 14400.00000 0 -8082893.827 8908204.637 -22477161.071 10 0 60126 15300.00000 0 -9120942.493 6299889.151 -22958363.020 10 0 60126 16200.00000 0 -10359894.493 3745629.705 -22993007.498 10 0 60126 17100.00000 0 -11769723.039 1308629.577 -22580492.155 10 0 60126 18000.00000 0 -13309935.236 -954336.732 -21728915.844 10 0 60126 18900.00000 0 -14931173.484 -2995055.636 -20454915.214 10 0 60126 19800.00000 0 -16577206.853 -4775639.248 -18783335.208 10 0 60126 20700.00000 0 -18187228.943 -6269850.468 -16746740.140 10 0 60126 21600.00000 0 -19698365.851 -7463934.670 -14384775.111 10 0 60126 22500.00000 0 -21048289.063 -8356924.972 -11743390.357 10 0 60126 23400.00000 0 -22177823.615 -8960410.146 -8873943.799 10 0 60126 24300.00000 0 -23033442.053 -9297776.826 -5832199.473 10 0 60126 25200.00000 0 -23569539.589 -9402959.679 -2677241.525 10 0 60126 26100.00000 0 -23750394.972 -9318753.781 529674.819 10 0 60126 27000.00000 0 -23551734.910 -9094761.763 3726312.737 10 0 60126 27900.00000 0 -22961836.577 -8785063.460 6850660.438 10 0 60126 28800.00000 0 -21982122.113 -8445707.224 9842131.379 10 0 60126 29700.00000 0 -20627220.398 -8132129.322 12642734.847 10 0 60126 30600.00000 0 -18924493.564 -7896610.573 15198194.453 10 0 60126 31500.00000 0 -16913048.018 -7785877.479 17458993.307 10 0 60126 32400.00000 0 -14642271.019 -7838948.866 19381326.245 10 0 60126 33300.00000 0 -12169953.362 -8085318.522 20927941.514 10 0 60126 34200.00000 0 -9560075.627 -8543550.206 22068856.384 10 0 60126 35100.00000 0 -6880349.150 -9220344.137 22781933.698 10 0 60126 36000.00000 0 -4199612.653 -10110114.538 23053308.843 10 0 60126 36900.00000 0 -1585191.448 -11195096.582 22877659.314 10 0 60126 37800.00000 0 899672.579 -12445979.259 22258311.753 10 0 60126 38700.00000 0 3198214.796 -13823038.896 21207184.182 10 0 60126 39600.00000 0 5262267.195 -15277727.239 19744563.959 10 0 60126 40500.00000 0 7054016.208 -16754649.063 17898724.917 10 0 60126 41400.00000 0 8547326.565 -18193847.765 15705390.000 10 0 60126 42300.00000 0 9728576.552 -19533304.246 13207048.709 10 0 60126 43200.00000 0 10596970.156 -20711544.960 10452141.492 10 0 60126 44100.00000 0 11164313.307 -21670249.936 7494125.931 10 0 60126 45000.00000 0 11454263.850 -22356750.981 4390442.264 10 0 60126 45900.00000 0 11501087.031 -22726314.380 1201397.998 10 0 60126 46800.00000 0 11347969.355 -22744111.035 -2011006.654 10 0 60126 47700.00000 0 11044962.475 -22386789.823 -5184289.243 10 0 60126 48600.00000 0 10646644.738 -21643586.555 -8256707.215 10 0 60126 49500.00000 0 10209600.183 -20516920.449 -11168467.078 10 0 60126 50400.00000 0 9789822.678 -19022451.753 -13862896.053 10 0 60126 51300.00000 0 9440156.175 -17188597.064 -16287552.515 10 0 60126 52200.00000 0 9207880.457 -15055521.894 -18395252.856 10 0 60126 53100.00000 0 9132545.519 -12673652.204 -20144994.164 10 0 60126 54000.00000 0 9244146.963 -10101766.986 -21502754.517 10 0 60126 54900.00000 0 9561720.177 -7404751.480 -22442155.239 10 0 60126 55800.00000 0 10092413.098 -4651104.846 -22944972.417 10 0 60126 56700.00000 0 10831076.993 -1910306.171 -23001488.050 10 0 60126 57600.00000 0 11760392.662 749851.629 -22610674.462 10 0 60126 58500.00000 0 12851526.794 3265849.285 -21780208.800 10 0 60126 59400.00000 0 14065290.866 5580842.919 -20526317.828 10 0 60126 60300.00000 0 15353753.731 7646780.892 -18873456.330 10 0 60126 61200.00000 0 16662240.014 9426148.650 -16853825.723 10 0 60126 62100.00000 0 17931630.153 10893270.194 -14506742.461 10 0 60126 63000.00000 0 19100865.259 12035113.441 -11877868.695 10 0 60126 63900.00000 0 20109551.346 12851567.510 -9018320.365 10 0 60126 64800.00000 0 20900553.270 13355182.197 -5983670.277 10 0 60126 65700.00000 0 21422469.240 13570382.403 -2832865.777 10 0 60126 66600.00000 0 21631881.720 13532192.278 372917.665 10 0 60126 67500.00000 0 21495290.099 13284524.356 3571464.404 10 0 60126 68400.00000 0 20990643.882 12878107.056 6700724.888 10 0 60126 69300.00000 0 20108412.001 12368138.936 9700016.648 10 0 60126 70200.00000 0 18852143.380 11811769.294 12511196.790 10 0 60126 71100.00000 0 17238495.132 11265511.695 15079783.513 10 0 60126 72000.00000 0 15296727.000 10782699.500 17356005.309 10 0 60126 72900.00000 0 13067682.775 10411090.426 19295758.172 10 0 60126 73800.00000 0 10602300.545 10190720.629 20861453.069 10 0 60126 74700.00000 0 7959713.052 10152098.253 22022738.053 10 0 60126 75600.00000 0 5205016.086 10314812.071 22757081.886 10 0 60126 76500.00000 0 2406796.383 10686613.563 23050208.540 10 0 60126 77400.00000 0 -365479.723 11263011.145 22896374.572 10 0 60126 78300.00000 0 -3044109.961 12027394.051 22298484.198 10 0 60126 79200.00000 0 -5565723.857 12951681.485 21268039.572 10 0 60126 80100.00000 0 -7873669.210 13997470.831 19824926.715 10 0 60126 81000.00000 0 -9920119.268 15117637.976 17997040.393 10 0 60126 81900.00000 0 -11667813.850 16258323.792 15819754.132 10 0 60126 82800.00000 0 -13091362.456 17361224.413 13335244.535 10 0 60126 83700.00000 0 -14178055.398 18366089.908 10591681.859 10 0 60126 84600.00000 0 -14928149.266 19213326.660 7642301.639 10 0 60126 85500.00000 0 -15354614.912 19846593.933 4544374.690 99